Regional Weather Roundup
Issued by NWS Upton, NY

Current Version | Previous Version | Graphics & Text | Print | Product List | Glossary Off
Versions: 1 2 3 4 5 6 7 8 9 10 11 12 13 14 15 16 17 18 19 20 21 22 23 24 25 26 27 28 29 30 31 32 33 34 35 36 37 38 39 40 41 42 43 44 45 46 47 48 49 50
000 ASUS41 KOKX 281105 RWROKX REGIONAL WEATHER ROUNDUP NATIONAL WEATHER SERVICE NEW YORK NY 600 AM EST SAT FEB 28 2015 NOTE: "FAIR" INDICATES FEW OR NO CLOUDS BELOW 12,000 FEET WITH NO SIGNIFICANT WEATHER AND/OR OBSTRUCTIONS TO VISIBILITY. NYZ071-072-176-178-NJZ106-104-281200- NEW YORK CITY METRO AREA CITY SKY/WX TMP DP RH WIND PRES REMARKS CENTRAL PARK CLEAR 14 -4 44 VRB5 30.76R WCI 6 LAGUARDIA APRT PTCLDY 15 -2 46 NW7 30.75R WCI 5 KENNEDY INTL PTCLDY 16 0 49 N6 30.77R WCI 7 NEWARK/LIBERTY PTCLDY 14 -3 47 NW7 30.76R WCI 4 BRNX BOT. GARD N/A N/A N/A N/A N3 30.77R TETERBORO CLEAR 12 -5 46 NW3 30.76R $$ NYZ177-179-078>081-281200- LONG ISLAND NEW YORK CITY SKY/WX TMP DP RH WIND PRES REMARKS FARMINGDALE CLEAR 13 1 59 CALM 30.75R ISLIP PTCLDY 14 2 58 NW6 30.72R WCI 5 SHIRLEY CLEAR 12 1 61 NW3 30.74R WESTHAMPTON CLEAR 13 2 61 N6 30.73R WCI 4 MONTAUK POINT N/A 17 4 56 N9 30.70R WCI 6 $$ NYZ052-065-067-281200- HUDSON VALLEY CITY SKY/WX TMP DP RH WIND PRES REMARKS WHITE PLAINS CLEAR 3 -4 72 CALM 30.70R NEWBURGH NOT AVBL MONTGOMERY CLEAR -4 -12 68 CALM 30.71R POUGHKEEPSIE CLEAR -5 -12 72 CALM 30.74R ALBANY PTCLDY 6 -4 63 NW7 30.75R WCI -6 $$ NJZ001-105-106-008-010-013-015-019>022-104-281200- NEW JERSEY CITY SKY/WX TMP DP RH WIND PRES REMARKS NEWARK/LIBERTY PTCLDY 14 -3 47 NW7 30.76R WCI 4 TETERBORO CLEAR 12 -5 46 NW3 30.76R CALDWELL CLEAR 9 -6 50 W5 30.76R WCI 1 MORRISTOWN CLEAR 7 -6 56 W3 30.76R SOMERVILLE CLEAR 7 -6 55 CALM 30.76R SUSSEX CLEAR 0 -9 65 CALM 30.73R ANDOVER N/A -1 -8 72 CALM 30.73R TRENTON CLEAR 12 -4 48 N6 30.76R WCI 3 MILLVILLE PTCLDY N/A N/A N/A N6 30.75R ATLANTIC CITY CLEAR 15 0 51 N9 30.75R WCI 3 WRIGHTSTOWN CLEAR 13 -1 53 N9 30.74R WCI 1 TOMS RIVER PTCLDY 12 0 57 NW7 30.75S WCI 2 BELMAR PTCLDY 14 -6 41 NW9 30.73R WCI 2 $$ PAZ047>061-062-071-281200- EASTERN PENNSYLVANIA CITY SKY/WX TMP DP RH WIND PRES REMARKS PHILADELPHIA PTCLDY 17 -2 43 N12 30.79R WCI 4 ALLENTOWN CLEAR 9 -6 50 NW7 30.76R WCI -2 SCRANTON PTCLDY 6 -7 54 NW9 30.70R WCI -8 $$ CTZ002-004>006-009-010-012-RIZ004-006-007-MAZ004-011-015-281200- SOUTHERN NEW ENGLAND IN CT CITY SKY/WX TMP DP RH WIND PRES REMARKS BRADLEY INTL CLEAR 2 -5 72 CALM 30.70R HARTFORD CLEAR 11 -1 58 NW9 30.73R WCI -2 DANBURY CLEAR -3 -10 72 CALM 30.71R WTRBRY/OXFORD CLEAR 3 -11 51 N5 30.65R WCI -6 BRIDGEPORT CLEAR 10 1 67 W3 30.73R MERIDEN CLEAR 2 -3 80 CALM 30.72R NEW HAVEN PTCLDY 12 0 58 NW6 30.71R WCI 3 CHESTER FAIR 12 1 62 N12 30.67R WCI -2 GROTON CLEAR 10 -1 61 N12 30.70R WCI -5 WILLIMANTIC CLEAR -4 -9 79 CALM 30.70R IN RI CITY SKY/WX TMP DP RH WIND PRES REMARKS PROVIDENCE PTCLDY 10 -3 55 NW7 30.69R WCI -1 BLOCK ISLAND CLEAR 16 1 53 N10 30.66R WCI 3 WESTERLY CLEAR 11 -1 58 N9 30.69R WCI -2 IN MA CITY SKY/WX TMP DP RH WIND PRES REMARKS BOSTON CLEAR 13 -1 54 W9 30.68R WCI 1 WORCESTER CLEAR 5 -5 63 NW14 30.59R WCI -12 WESTFIELD CLEAR -3 -9 75 CALM 30.69R PROVINCETOWN CLEAR 21 5 49 NW12 30.65R WCI 9 NANTUCKET CLEAR 19 10 68 NW9 30.65R WCI 8 $$ ANZ330-335-338-340-345-350-353-355-281200- COASTAL MARINE OBSERVATIONS STATION/POSITION TIME SKY/WX TEMP WIND PRES VSBY WAVE AIR SEA DIR/SP/G HT/PER (UTC) (F) (DEG/KT/KT) (MB) (MI) (FT/S) NY HARB ENTRANCE 1100 20 38 350/ 10/ 14 1040.9 3/11 4S FIRE IS NOT AVBL 20S FIRE ISLAND 1000 37 1039.9 4/11 23SW MTP 1100 N/A 4/10 HUDSON CANYON NOT AVBL EXECUTION ROCKS NOT AVBL WESTERN LI SOUND NOT AVBL CENTRAL LI SOUND NOT AVBL EASTERN LI SOUND NOT AVBL ROBBINS REEF 1100 15 330/ 11/ 13 1040.3 $$ >>>>>>>>>>>>>>>>>>>>>>>>>>>> KEY <<<<<<<<<<<<<<<<<<<<<<<<<<< > < > SKY/WX - SKY CONDITION/PRESENT WEATHER < > TMP - TEMPERATURE IN FAHRENHEIT < > DP - DEWPOINT IN FAHRENHEIT < > RH - RELATIVE HUMIDITY IN PERCENT < > WIND - DIRECTION AND SPEED IN MPH < > PRES - MEAN SEA LEVEL PRESSURE IN INCHES OF HG < > WCI - WIND CHILL INDEX < > VSB - VISIBILITY IN MILES < > HX - HEAT INDEX < > TC - TEMPERATURE IN CELSIUS < > VRB - VARIABLE WIND DIRECTION < > < >>>>>>>>>>>>>>>>>>>>>>>>>>>> KEY <<<<<<<<<<<<<<<<<<<<<<<<<<<

USA.gov is the U.S. government's official web portal to all federal, state and local government web resources and services.